DW8027 Weather Reports


Display with metric or nautical units.
time (UTC)temp
F
wind
direction
speed
MPH
gust
MPH
rain 1hr
in
rain 24hr
in
rain mn
in
humidity
%
barometer
mb
20180222045325 66 269 0.0 0.0 0.00 0.01 0.01 92 1027.5
20180222044831 66 269 0.0 0.0 0.00 0.01 0.01 92 1027.5
20180222044335 66 269 0.0 0.0 0.00 0.01 0.01 92 1027.4
20180222043841 66 269 0.0 0.0 0.00 0.01 0.01 92 1027.4
20180222043327 66 269 0.0 0.0 0.00 0.01 0.01 92 1027.5
20180222042831 66 269 0.0 0.0 0.00 0.01 0.01 92 1027.5
20180222042336 66 269 0.0 0.0 0.00 0.01 0.01 92 1027.5
20180222041840 66 269 0.0 0.0 0.00 0.01 0.01 92 1027.5
20180222041343 66 269 0.0 0.0 0.00 0.01 0.01 92 1027.5
20180222040828 66 269 0.0 0.0 0.00 0.01 0.01 92 1027.4
20180222040333 66 269 0.0 0.0 0.00 0.01 0.01 92 1027.5
20180222035836 66 269 0.0 0.0 0.00 0.01 0.01 92 1027.4
20180222035341 66 269 0.0 0.0 0.00 0.01 0.01 93 1027.4
20180222034827 66 269 0.0 0.0 0.00 0.01 0.01 93 1027.4
20180222034333 66 269 0.0 0.0 0.00 0.01 0.01 92 1027.4
20180222033838 66 269 0.0 0.0 0.00 0.01 0.01 92 1027.3
20180222033345 66 269 0.0 0.0 0.00 0.01 0.01 92 1027.3
20180222032829 67 269 0.0 0.0 0.00 0.01 0.01 92 1027.3
20180222032335 67 269 0.0 0.0 0.00 0.01 0.01 92 1027.2
20180222031838 67 269 0.0 0.0 0.00 0.01 0.01 92 1027.2
20180222031341 67 269 0.0 0.0 0.00 0.01 0.01 91 1027.1
20180222030827 67 269 0.0 0.0 0.00 0.01 0.01 92 1027.1
20180222030334 67 269 0.0 0.0 0.00 0.01 0.01 92 1027.0
20180222025839 66 269 0.0 0.0 0.00 0.01 0.01 93 1026.9
20180222025343 66 269 0.0 0.0 0.00 0.01 0.01 93 1026.9
20180222024829 66 269 0.0 0.0 0.00 0.01 0.01 93 1026.8
20180222024335 66 269 0.0 0.0 0.00 0.01 0.01 93 1026.8
20180222023840 67 269 0.0 0.0 0.00 0.01 0.01 93 1026.8
20180222023326 67 269 0.0 0.0 0.00 0.01 0.01 93 1026.8
20180222022830 67 269 0.0 0.0 0.00 0.01 0.01 93 1026.8
20180222022337 67 269 0.0 0.0 0.00 0.01 0.01 93 1026.8
20180222021843 66 269 0.0 0.0 0.00 0.01 0.01 93 1026.8
20180222021329 67 269 0.0 0.0 0.00 0.01 0.01 92 1026.8
20180222020835 67 269 0.0 0.0 0.00 0.01 0.01 92 1026.9
20180222020341 67 269 0.0 0.0 0.00 0.01 0.01 92 1026.9
20180222015826 67 269 0.0 0.0 0.00 0.01 0.01 91 1026.9
20180222015332 67 269 0.0 0.0 0.00 0.01 0.01 92 1026.8
20180222014838 67 269 0.0 0.0 0.00 0.01 0.01 92 1026.9
20180222014328 68 269 0.0 0.0 0.00 0.01 0.01 91 1026.8
20180222013833 68 269 0.0 0.0 0.00 0.01 0.01 91 1026.8
20180222013341 68 269 0.0 0.0 0.00 0.01 0.01 90 1026.8
20180222012825 68 269 0.0 0.0 0.00 0.01 0.01 91 1026.8
20180222012332 68 269 0.0 0.0 0.00 0.01 0.01 91 1026.8
20180222011838 68 269 0.0 0.0 0.00 0.01 0.01 91 1026.7
20180222011324 68 269 0.0 0.0 0.00 0.01 0.01 91 1026.6
20180222010830 68 269 0.0 0.0 0.00 0.01 0.01 90 1026.6
20180222010337 68 269 0.0 0.0 0.00 0.01 0.01 90 1026.7
20180222005841 69 269 0.0 0.0 0.00 0.01 0.01 90 1026.7
20180222005325 69 269 0.0 0.0 0.00 0.01 0.01 90 1026.8
20180222004831 69 269 0.0 0.0 0.00 0.01 0.01 90 1026.7
20180222004337 68 269 0.0 0.0 0.00 0.01 0.01 90 1026.7
20180222003842 69 269 0.0 0.0 0.00 0.01 0.01 89 1026.7
20180222003328 69 269 0.0 0.0 0.00 0.01 0.01 89 1026.6
20180222002831 69 269 0.0 0.0 0.00 0.01 0.01 88 1026.6
20180222002335 70 269 0.0 0.0 0.00 0.01 0.01 87 1026.6
20180222001841 70 269 0.0 0.0 0.00 0.01 0.01 87 1026.6
20180222001327 70 269 0.0 0.0 0.00 0.01 0.01 86 1026.6
20180222000827 71 269 0.0 0.0 0.00 0.01 0.01 86 1026.5
20180222000333 71 269 0.0 0.0 0.00 0.01 0.01 85 1026.5
20180221235838 71 269 0.0 0.0 0.00 0.01 0.01 85 1026.4
20180221235324 71 269 0.0 0.0 0.00 0.01 0.01 84 1026.4
20180221234829 72 269 0.0 0.0 0.00 0.01 0.01 83 1026.4
20180221234333 72 269 0.0 0.0 0.00 0.01 0.01 83 1026.3
20180221233836 73 268 0.0 0.0 0.00 0.01 0.01 82 1026.3
20180221233343 73 269 0.0 0.0 0.00 0.01 0.01 82 1026.2
20180221232828 73 269 0.0 0.0 0.00 0.01 0.01 81 1026.2
20180221232334 73 326 0.0 0.0 0.00 0.01 0.01 81 1026.2
20180221231834 74 326 0.0 0.0 0.00 0.01 0.01 80 1026.2
20180221231339 74 128 0.0 0.0 0.00 0.01 0.01 79 1026.1
20180221230825 74 128 0.0 0.0 0.00 0.01 0.01 79 1026.1
20180221230332 75 207 0.0 0.0 0.00 0.01 0.01 79 1026.0
20180221225836 75 207 0.0 0.0 0.00 0.01 0.01 78 1025.9
20180221225339 75 145 0.0 0.0 0.00 0.01 0.01 78 1025.9
20180221224824 75 258 0.0 0.0 0.00 0.01 0.01 78 1025.8
20180221224329 76 259 0.0 0.0 0.00 0.01 0.01 78 1025.9
20180221223835 76 257 0.0 0.0 0.00 0.01 0.01 77 1025.9
20180221223339 76 256 0.0 0.0 0.00 0.01 0.01 77 1026.1
20180221222842 76 256 0.0 0.0 0.00 0.01 0.01 77 1026.0
20180221222328 76 256 0.0 0.0 0.00 0.01 0.01 78 1026.1
20180221221834 76 257 0.0 0.0 0.00 0.01 0.01 78 1026.0
20180221221339 76 257 0.0 0.0 0.00 0.01 0.01 78 1026.0
20180221220841 76 257 0.0 0.0 0.00 0.01 0.01 77 1026.0
20180221220327 76 257 0.0 0.0 0.00 0.01 0.01 77 1026.0
20180221215832 76 257 0.0 0.0 0.00 0.01 0.01 77 1026.0
20180221215338 76 257 0.0 0.0 0.00 0.01 0.01 77 1026.0
20180221214843 76 201 0.0 0.0 0.00 0.01 0.01 77 1026.1
20180221214334 76 201 0.0 0.0 0.00 0.01 0.01 77 1026.1
20180221213829 76 197 0.0 0.0 0.00 0.01 0.01 77 1026.1
20180221213340 76 197 0.0 0.0 0.00 0.01 0.01 78 1026.1
20180221212843 76 195 0.0 0.0 0.00 0.01 0.01 77 1026.0
20180221212326 76 205 0.0 0.0 0.00 0.01 0.01 77 1026.0
20180221211832 76 205 0.0 0.0 0.00 0.01 0.01 77 1026.0
20180221211338 76 205 0.0 0.0 0.00 0.01 0.01 77 1026.0
20180221210843 76 205 0.0 0.0 0.00 0.01 0.01 77 1025.9
20180221210342 76 205 0.0 0.0 0.00 0.01 0.01 77 1026.0
20180221205825 76 319 0.0 0.0 0.00 0.01 0.01 78 1026.0
20180221205331 76 319 0.0 0.0 0.00 0.01 0.01 77 1026.0
20180221204825 76 319 0.0 0.0 0.00 0.01 0.01 77 1026.0
20180221204331 76 319 0.0 0.0 0.00 0.01 0.01 77 1026.0
20180221203837 76 240 0.0 0.0 0.00 0.01 0.01 77 1026.1
20180221203343 76 240 0.0 0.0 0.00 0.01 0.01 78 1026.1
20180221202834 76 243 0.0 0.0 0.00 0.01 0.01 77 1026.1
20180221202341 76 79 0.0 0.0 0.00 0.01 0.01 77 1026.2
20180221201837 76 111 0.0 0.0 0.00 0.01 0.01 77 1026.2
20180221201341 76 160 0.0 0.0 0.00 0.01 0.01 77 1026.4
20180221200827 76 86 0.0 0.0 0.00 0.01 0.01 76 1026.4
20180221200334 77 116 0.0 0.0 0.00 0.01 0.01 76 1026.4
20180221195837 77 107 0.0 0.0 0.00 0.01 0.01 76 1026.5
20180221195341 77 229 0.0 0.0 0.00 0.01 0.01 76 1026.6
20180221194827 77 186 0.0 0.0 0.00 0.01 0.01 77 1026.6
20180221194333 77 158 0.0 0.0 0.00 0.01 0.01 77 1026.7
20180221193839 77 256 0.0 0.0 0.00 0.01 0.01 77 1026.7
20180221193325 76 198 0.0 2.0 0.00 0.01 0.01 78 1026.8
20180221192829 76 172 0.0 2.0 0.00 0.01 0.01 78 1026.9
20180221192335 76 89 0.0 1.0 0.00 0.01 0.01 80 1027.0
20180221191841 76 137 0.0 0.0 0.00 0.01 0.01 80 1027.0
20180221191327 76 221 0.0 3.0 0.00 0.01 0.01 80 1027.2
20180221190830 76 143 0.0 3.0 0.00 0.01 0.01 80 1027.3
20180221190337 76 187 0.0 0.0 0.00 0.01 0.01 81 1027.4
20180221185825 75 226 0.0 1.0 0.00 0.01 0.01 81 1027.4
20180221185331 75 172 0.0 1.0 0.00 0.01 0.01 82 1027.4
20180221184836 75 221 0.0 0.0 0.00 0.01 0.01 82 1027.5
20180221184340 75 143 0.0 0.0 0.00 0.01 0.01 82 1027.5
20180221183824 75 124 0.0 2.0 0.00 0.01 0.01 84 1027.5
20180221183331 74 229 0.0 2.0 0.00 0.01 0.01 85 1027.7
20180221182835 73 207 0.0 0.0 0.00 0.01 0.01 87 1027.7
20180221182341 73 288 0.0 0.0 0.00 0.01 0.01 88 1027.8
20180221181827 72 124 0.0 0.0 0.00 0.01 0.01 89 1027.9
20180221181332 72 113 0.0 0.0 0.00 0.01 0.01 89 1027.9
20180221180837 72 127 0.0 0.0 0.00 0.01 0.01 89 1028.1
20180221180344 72 137 0.0 0.0 0.00 0.01 0.01 90 1028.2
20180221175828 72 204 0.0 0.0 0.00 0.01 0.01 90 1028.4
20180221175333 72 146 0.0 0.0 0.00 0.01 0.01 90 1028.4
20180221174838 71 105 0.0 0.0 0.00 0.01 0.01 92 1028.5
20180221174343 71 207 0.0 0.0 0.00 0.01 0.01 92 1028.6
20180221173828 71 220 0.0 0.0 0.00 0.01 0.01 92 1028.7
20180221173335 71 221 0.0 0.0 0.00 0.01 0.01 93 1028.8
20180221172838 70 255 0.0 0.0 0.00 0.01 0.01 93 1028.9
20180221172324 70 131 0.0 0.0 0.00 0.01 0.01 94 1028.9
20180221171830 70 130 0.0 0.0 0.00 0.01 0.01 94 1029.0
20180221171335 70 152 0.0 0.0 0.00 0.01 0.01 94 1029.1
20180221170841 70 204 0.0 0.0 0.00 0.01 0.01 95 1029.1
20180221170326 69 212 0.0 0.0 0.00 0.01 0.01 95 1029.1
20180221165828 69 215 0.0 0.0 0.00 0.01 0.01 95 1029.2
20180221165334 69 215 0.0 0.0 0.00 0.01 0.01 95 1029.3
20180221164839 69 215 0.0 0.0 0.00 0.01 0.01 95 1029.3
20180221164325 69 217 0.0 0.0 0.00 0.01 0.01 95 1029.3
20180221163828 69 245 0.0 0.0 0.00 0.01 0.01 95 1029.3
20180221163334 69 246 0.0 1.0 0.00 0.01 0.01 96 1029.4
20180221162838 69 248 0.0 1.0 0.00 0.01 0.01 95 1029.4
20180221162324 69 236 0.0 0.0 0.00 0.01 0.01 96 1029.3
20180221161830 69 195 0.0 0.0 0.00 0.01 0.01 97 1029.3
20180221161333 69 190 0.0 0.0 0.00 0.01 0.01 97 1029.2
20180221160836 68 152 0.0 0.0 0.00 0.01 0.01 97 1029.3
20180221160343 68 152 0.0 0.0 0.00 0.01 0.01 97 1029.3
20180221155828 68 135 0.0 0.0 0.00 0.01 0.01 97 1029.3
20180221155334 68 203 0.0 0.0 0.00 0.01 0.01 97 1029.3
20180221154835 68 240 0.0 0.0 0.00 0.01 0.01 97 1029.3
20180221154341 68 242 0.0 0.0 0.00 0.01 0.01 97 1029.4
20180221153827 68 172 0.0 0.0 0.00 0.01 0.01 97 1029.3
20180221153334 68 150 0.0 1.0 0.00 0.01 0.01 97 1029.2
20180221152839 68 120 0.0 1.0 0.00 0.01 0.01 97 1029.2
20180221152339 68 125 0.0 0.0 0.00 0.01 0.01 97 1029.2
20180221151825 68 186 0.0 0.0 0.00 0.01 0.01 97 1029.2
20180221151331 68 195 0.0 0.0 0.00 0.01 0.01 97 1029.2
20180221150837 68 191 0.0 0.0 0.00 0.01 0.01 97 1029.1
20180221150343 68 191 0.0 0.0 0.00 0.01 0.01 97 1029.1
20180221145828 68 208 0.0 0.0 0.00 0.01 0.01 97 1029.1
20180221145334 68 143 0.0 0.0 0.00 0.01 0.01 97 1029.1
20180221144839 68 109 0.0 0.0 0.00 0.01 0.01 97 1029.0
20180221144329 68 217 0.0 0.0 0.00 0.01 0.01 97 1029.0
20180221143835 68 250 0.0 0.0 0.00 0.01 0.01 97 1028.9
20180221143339 68 194 0.0 0.0 0.00 0.01 0.01 97 1028.9
20180221142824 67 161 0.0 0.0 0.00 0.01 0.01 97 1028.8
20180221142329 67 291 0.0 0.0 0.00 0.01 0.01 97 1028.7
20180221141835 67 242 0.0 0.0 0.00 0.01 0.01 97 1028.7
20180221141341 67 242 0.0 0.0 0.00 0.01 0.01 97 1028.7
20180221140827 67 166 0.0 0.0 0.00 0.01 0.01 97 1028.5
20180221140334 67 193 0.0 0.0 0.00 0.01 0.01 97 1028.4
20180221135838 67 267 0.0 0.0 0.00 0.01 0.01 97 1028.4
20180221135324 67 214 0.0 0.0 0.00 0.01 0.01 97 1028.3
20180221134826 67 260 0.0 0.0 0.00 0.01 0.01 97 1028.3
20180221134332 67 207 0.0 0.0 0.00 0.01 0.01 97 1028.3
20180221133837 67 208 0.0 0.0 0.00 0.01 0.01 97 1028.3
20180221133344 67 125 0.0 0.0 0.00 0.01 0.01 96 1028.2
20180221132829 67 131 0.0 0.0 0.00 0.01 0.01 96 1028.1
20180221132335 67 139 0.0 0.0 0.00 0.01 0.01 96 1028.0
20180221131840 67 143 0.0 0.0 0.00 0.01 0.01 96 1027.9
20180221131325 67 123 0.0 0.0 0.00 0.01 0.01 96 1027.9
20180221130831 67 247 0.0 0.0 0.00 0.01 0.01 96 1027.9
20180221130338 67 215 0.0 0.0 0.00 0.01 0.01 96 1027.9
20180221125841 67 225 0.0 4.0 0.00 0.01 0.01 97 1027.8
20180221125326 67 156 0.0 5.0 0.00 0.01 0.01 97 1027.9
20180221124831 67 269 0.0 5.0 0.00 0.01 0.01 97 1027.9
20180221124336 67 105 0.0 0.0 0.00 0.01 0.01 97 1027.8
20180221123841 67 136 0.0 0.0 0.00 0.01 0.01 97 1027.7
20180221123327 67 158 0.0 0.0 0.00 0.01 0.01 97 1027.8
20180221122832 67 139 0.0 0.0 0.00 0.01 0.01 97 1027.7
20180221122337 67 153 0.0 0.0 0.00 0.01 0.01 97 1027.7
20180221121843 67 129 0.0 0.0 0.00 0.01 0.01 97 1027.7
20180221121329 67 134 0.0 2.0 0.00 0.01 0.01 97 1027.7
20180221120835 66 130 0.0 0.0 0.00 0.01 0.01 97 1027.7
20180221120341 66 128 0.0 0.0 0.00 0.01 0.01 97 1027.8
20180221115825 66 124 0.0 0.0 0.00 0.01 0.01 97 1027.7
20180221115331 66 107 0.0 0.0 0.00 0.01 0.01 97 1027.7
20180221114835 66 117 0.0 0.0 0.00 0.01 0.01 97 1027.7
20180221114338 66 158 0.0 0.0 0.00 0.01 0.01 97 1027.7
20180221113842 66 204 0.0 0.0 0.00 0.01 0.01 97 1027.7
20180221113329 66 204 0.0 0.0 0.00 0.01 0.01 97 1027.7
20180221112833 66 236 0.0 0.0 0.00 0.01 0.01 97 1027.8
20180221112337 66 208 0.0 0.0 0.00 0.01 0.01 97 1027.8
20180221111842 66 214 0.0 0.0 0.00 0.01 0.01 97 1027.8
20180221111328 66 214 0.0 0.0 0.00 0.01 0.01 97 1027.8
20180221110834 66 214 0.0 0.0 0.00 0.01 0.01 97 1027.7
20180221110340 66 263 0.0 0.0 0.00 0.01 0.01 97 1027.7
20180221105824 66 200 0.0 0.0 0.00 0.01 0.01 97 1027.6
20180221105330 66 218 0.0 2.0 0.00 0.01 0.01 97 1027.5
20180221104836 66 267 0.0 2.0 0.00 0.01 0.01 97 1027.5
20180221104325 66 161 0.0 0.0 0.00 0.01 0.01 97 1027.4
20180221103830 66 181 0.0 0.0 0.00 0.01 0.01 97 1027.4
20180221103336 66 276 0.0 0.0 0.01 0.01 0.01 97 1027.3
20180221102840 66 267 0.0 0.0 0.01 0.01 0.01 97 1027.3
20180221102326 65 117 0.0 0.0 0.01 0.01 0.01 97 1027.1
20180221101833 65 114 0.0 0.0 0.01 0.01 0.01 97 1027.1
20180221101338 65 110 0.0 0.0 0.01 0.01 0.01 97 1027.1
20180221100823 65 110 0.0 0.0 0.01 0.01 0.01 97 1027.2
20180221100330 65 108 0.0 0.0 0.01 0.01 0.01 97 1027.1
20180221095832 65 108 0.0 0.0 0.01 0.01 0.01 97 1027.2
20180221095338 65 108 0.0 0.0 0.01 0.01 0.01 97 1027.3
20180221094842 65 217 0.0 0.0 0.01 0.01 0.01 97 1027.4
20180221094327 65 217 0.0 0.0 0.01 0.01 0.01 97 1027.4
20180221093833 65 217 0.0 0.0 0.01 0.01 0.01 97 1027.4
20180221093339 65 217 0.0 0.0 0.00 0.00 0.00 97 1027.3
20180221092842 65 217 0.0 0.0 0.00 0.00 0.00 97 1027.3
20180221092325 65 217 0.0 0.0 0.00 0.00 0.00 97 1027.4
20180221091829 65 217 0.0 0.0 0.00 0.00 0.00 97 1027.4
20180221091340 65 217 0.0 0.0 0.00 0.00 0.00 96 1027.3
20180221090843 65 217 0.0 0.0 0.00 0.00 0.00 96 1027.4
20180221090327 65 217 0.0 0.0 0.00 0.00 0.00 96 1027.3
20180221085825 65 217 0.0 0.0 0.00 0.00 0.00 97 1027.3
20180221085329 65 217 0.0 0.0 0.00 0.00 0.00 97 1027.3
20180221084834 65 217 0.0 0.0 0.00 0.00 0.00 97 1027.2
20180221084332 65 217 0.0 0.0 0.00 0.00 0.00 96 1027.1
20180221083841 65 217 0.0 0.0 0.00 0.00 0.00 96 1027.1
20180221083333 65 217 0.0 0.0 0.00 0.00 0.00 96 1027.1
20180221082831 65 214 0.0 0.0 0.00 0.00 0.00 96 1027.1
20180221082337 65 214 0.0 0.0 0.00 0.00 0.00 96 1027.1
20180221081843 65 214 0.0 0.0 0.00 0.00 0.00 96 1027.1
20180221081329 65 214 0.0 0.0 0.00 0.00 0.00 96 1027.0
20180221080824 65 214 0.0 0.0 0.00 0.00 0.00 96 1027.0
20180221080326 65 214 0.0 0.0 0.00 0.00 0.00 96 1027.0
20180221075831 65 214 0.0 0.0 0.00 0.00 0.00 96 1027.0
20180221075337 65 214 0.0 0.0 0.00 0.00 0.00 96 1027.0
20180221074827 65 214 0.0 0.0 0.00 0.00 0.00 96 1027.0
20180221074333 65 214 0.0 0.0 0.00 0.00 0.00 96 1027.0
20180221073838 65 214 0.0 0.0 0.00 0.00 0.00 96 1027.1
20180221073325 65 214 0.0 0.0 0.00 0.00 0.00 95 1027.0
20180221072830 65 214 0.0 0.0 0.00 0.00 0.00 95 1027.1
20180221072335 65 214 0.0 0.0 0.00 0.00 0.00 95 1027.1
20180221071839 66 214 0.0 0.0 0.00 0.00 0.00 94 1027.1
20180221071325 66 214 0.0 0.0 0.00 0.00 0.00 94 1027.1
20180221070831 66 214 0.0 0.0 0.00 0.00 0.00 94 1027.2
20180221070338 66 214 0.0 0.0 0.00 0.00 0.00 94 1027.1
20180221065842 66 214 0.0 0.0 0.00 0.00 0.00 93 1027.1
20180221065327 66 214 0.0 0.0 0.00 0.00 0.00 93 1027.2
20180221064832 66 214 0.0 0.0 0.00 0.00 0.00 93 1027.2
20180221064337 66 214 0.0 0.0 0.00 0.00 0.00 93 1027.3
20180221063843 66 214 0.0 0.0 0.00 0.00 0.00 92 1027.3
20180221063330 66 214 0.0 0.0 0.00 0.00 0.00 92 1027.3
20180221062835 67 214 0.0 0.0 0.00 0.00 0.00 92 1027.3
20180221062340 67 214 0.0 0.0 0.00 0.00 0.00 92 1027.2
20180221061825 67 214 0.0 0.0 0.00 0.00 0.00 91 1027.3
20180221061330 67 214 0.0 0.0 0.00 0.00 0.00 91 1027.2
20180221060835 67 214 0.0 0.0 0.00 0.00 0.00 91 1027.2
20180221060342 67 214 0.0 0.0 0.00 0.00 0.00 91 1027.1
20180221055826 67 214 0.0 0.0 0.00 0.00 0.00 91 1027.1
20180221055332 67 214 0.0 0.0 0.00 0.00 0.00 91 1027.1
20180221054838 67 214 0.0 0.0 0.00 0.00 0.00 91 1027.1
20180221054324 67 214 0.0 0.0 0.00 0.00 0.00 91 1027.1
20180221053830 67 214 0.0 0.0 0.00 0.00 0.00 91 1027.0
20180221053337 67 214 0.0 0.0 0.00 0.00 0.00 91 1027.0
20180221052842 67 214 0.0 0.0 0.00 0.00 0.00 91 1026.9
20180221052327 67 214 0.0 0.0 0.00 0.00 0.00 91 1026.9
20180221051833 67 101 0.0 0.0 0.00 0.00 0.00 90 1026.9
20180221051339 67 102 0.0 0.0 0.00 0.00 0.00 90 1026.9
20180221050824 67 102 0.0 0.0 0.00 0.00 0.00 90 1026.9
20180221050328 67 102 0.0 0.0 0.00 0.00 0.00 90 1026.9
20180221045833 66 102 0.0 0.0 0.00 0.00 0.00 90 1026.8
20180221045339 66 102 0.0 0.0 0.00 0.00 0.00 90 1026.8